Regional Weather Roundup
Issued by NWS

Home | Current Version | Previous Version | Graphics & Text | Print | Product List | Glossary On
Versions: 1 2 3 4 5 6 7 8 9 10 11 12 13 14 15 16 17 18 19 20 21 22 23 24 25 26 27 28 29 30 31 32 33 34 35 36 37 38 39 40 41 42 43 44 45 46 47 48 49 50
000
ASUS43 KDMX 220207
RWRIA

WEATHER ROUNDUP FOR IOWA
NATIONAL WEATHER SERVICE DES MOINES IA
900 PM CDT MON JUL 21 2014

NOTE: "FAIR" INDICATES FEW OR NO CLOUDS BELOW 12,000 FEET WITH NO
SIGNIFICANT WEATHER AND/OR OBSTRUCTIONS TO VISIBILITY.

* - THESE STATIONS ARE NOT NWS STATIONS...THUS NOT UNDER NWS
QUALITY CONTROL.  THEY ALSO DO NOT REPORT WEATHER SUCH
AS PRECIPITATION OR FOG.

IAZ001>003-012>014-020>022-031>034-043>046-220300-
   NORTHWEST IOWA

CITY           SKY/WX    TMP DP  RH WIND       PRES   REMARKS
CARROLL *      CLEAR     81  77  89 S6        29.86S HX  88
CHEROKEE *     MOCLDY    82  79  89 S6        29.82S HX  93
DENISON *      CLEAR     84  79  84 S13       29.83S HX  96
LE MARS *      CLEAR     84  77  79 S5        29.80S HX  94
ORANGE CITY *  CLEAR     84  77  79 S3        29.82R HX  94
SHELDON *      CLEAR     82  79  89 SE8       29.80F HX  93
SIOUX CITY     CLEAR     86  78  77 SE8       29.79S HX  98
SPENCER        MOCLDY    83  77  82 SE9       29.84S HX  92
STORM LAKE *   CLEAR     82  81  94 S9        29.85F HX  95
$$

IAZ055>058-069>071-079>083-090>094-220300-
   SOUTHWEST IOWA

CITY           SKY/WX    TMP DP  RH WIND       PRES   REMARKS
ATLANTIC *     CLEAR     84  77  79 S7        29.86S HX  94
AUDUBON *      MOCLDY    84  81  89 S8        29.89R HX  98
CLARINDA *     CLEAR     84  77  79 S10       29.89S HX  94
COUNCIL BLFS *   N/A     84  82  94 S12       29.84R HX 101
CRESTON *      CLEAR     82  75  78 S9        29.91S HX  89
HARLAN  *      CLEAR     84  79  84 S7        29.89S HX  96
LAMONI         CLEAR     83  76  79 S12G17    29.93S HX  91
RED OAK *      CLEAR     84  79  84 S8        29.86F HX  96
SHENANDOAH *   CLEAR     86  79  79 S14       29.86S HX  99
$$

IAZ047>049-059>061-072>074-084-220300-
   CENTRAL IOWA

CITY           SKY/WX    TMP DP  RH WIND       PRES   REMARKS
AMES           CLEAR     83  76  79 S7        29.89S HX  91
ANKENY *       CLEAR     84  77  79 S7        29.89S HX  94
CHARITON *     CLEAR     82  75  78 S10G16    29.93S HX  89
DES MOINES     PTCLDY    86  76  71 S9        29.90S HX  96
GRINNELL*      PTCLDY    81  73  78 SE7       29.95R HX  85
KNOXVILLE *    CLEAR     84  75  74 S12       29.92R HX  92
MARSHALLTOWN   MOCLDY    83  75  77 SE14      29.91F HX  90
PELLA *        CLEAR     82  75  78 SE6       29.94R HX  89
PERRY *          N/A     82  77  83 S8        29.88S HX  91
$$

IAZ004>006-015-016-023>025-035-036-220300-
   NORTH CENTRAL IOWA

CITY           SKY/WX    TMP DP  RH WIND       PRES   REMARKS
ALGONA *       CLEAR     82  79  89 SE10      29.86S HX  93
CLARION *      CLOUDY    82  77  83 SE10      29.88S HX  91
ESTHERVILLE    CLOUDY    81  76  84 S9        29.84  HX  87
FORT DODGE *   PTCLDY    84  75  74 S7        29.88R HX  92
MASON CITY     MOCLDY    82  77  84 SE10      29.91S HX  90
FOREST CITY *  MOCLDY    81  77  89 SE8       29.89R HX  88
IOWA FALLS *   CLOUDY    82  75  78 SE9       29.92R HX  89
$$

IAZ007>011-017>019-026>030-037>042-050>054-066-220300-
   NORTHEAST IOWA

CITY           SKY/WX    TMP DP  RH WIND       PRES   REMARKS
CEDAR RAPIDS   PTCLDY    79  70  74 S9        29.96R HX  82
CHARLES CITY * MOCLDY    81  73  78 SE12      29.92F HX  85
DECORAH *      PTCLDY    79  72  78 S8G15     29.94F HX  82
DUBUQUE        CLEAR     76  69  79 S12       29.99F
MONTICELLO *   CLEAR     77  72  83 SE7       29.98R
OELWEIN *      CLEAR     79  75  89 S10       29.96F HX  82
WATERLOO       MOCLDY    82  72  71 S17G23    29.91F HX  87
$$

IAZ064-065-067-068-078-220300-
   EAST CENTRAL IOWA

CITY           SKY/WX    TMP DP  RH WIND       PRES   REMARKS
DAVENPORT      CLEAR     79  68  69 S12       30.00S HX  81
IOWA CITY      PTCLDY    79  71  76 SE9       29.98R HX  82
MT. PLEASANT * CLEAR     79  68  69 SE7       29.98F HX  81
MUSCATINE *    CLEAR     81  70  69 S9        29.98S HX  84
QUAD CITIES    CLEAR     78  69  73 SE6       30.00S HX  80
$$

IAZ062-063-075>077-085>089-095>099-220300-
   SOUTHEAST IOWA

CITY           SKY/WX    TMP DP  RH WIND       PRES   REMARKS
BURLINGTON     CLEAR     79  70  74 S8        30.00S HX  82
FAIRFIELD *    CLEAR     79  70  73 SE10      29.97S HX  81
FORT MADISON * CLEAR     81  70  69 SE9       30.01S HX  84
KEOKUK *       CLEAR     81  70  69 SE8       29.99S HX  84
OSKALOOSA *      N/A     79  73  82 S8        29.96R HX  82
CENTERVILLE *    N/A     81  77  89 SE6       29.98R HX  88
OTTUMWA        CLEAR     81  71  71 S12       29.95R HX  85
WASHINGTON *   CLEAR     79  72  78 S10       29.97S HX  82
$$

ABBREVIATIONS USED IN REMARKS
   TC - TEMPERATURES IN CELSIUS
  WCI - WIND CHILL INDEX
   HX - HEAT INDEX
  VSB - VISIBILITY
$$



USA.gov is the U.S. government's official web portal to all federal, state and local government web resources and services.